{"data":{"norad_id":68905,"intl_designator":"2026-097L","name":"STARLINK-37494","alt_names":[],"object_type":"PAYLOAD","status":"ACTIVE","operator":null,"country":"US","launch_date":"2026-04-30","launch_site_code":"AFWTR","launch_vehicle":null,"mission":null,"orbit_class":"UNKNOWN","rcs_meters":null,"size_class":null,"mass_kg":null,"dimensions":null,"purposes":["comms"],"wikipedia_slug":null,"has_3d_model":false,"image_url":null,"decayed_at":null,"tle_current":{"epoch":"2026-09-19T23:50:40.657632Z","epoch_age_seconds":59308,"freshness":"FRESH","line1":"1 68905U 26097L   26262.99352613  .00022366  00000+0  69236-3 0  9995","line2":"2 68905  97.2843  97.1341 0001551  83.8914 276.2505 15.33476804 22016","mean_motion":15.33476804,"eccentricity":0.0001551,"inclination_deg":97.2843,"raan_deg":97.1341,"arg_perigee_deg":83.8914,"mean_anomaly_deg":276.2505,"bstar":0.00069236,"rev_number":2201,"period_min":93.904257061067,"perigee_km":464.38710966682,"apogee_km":466.50998990437,"semimajor_km":6843.5855497856,"source":"CELESTRAK","updated_at":"2026-09-20T09:00:44.047976Z"}}}